FW9958 Weather Reports


time (UTC)temp
F
wind
direction
speed
knots
gust
knots
rain 1hr
in
rain 24hr
in
rain mn
in
humidity
%
barometer
mb
20260510033104 76 0 0.0 0.0 0.00 0.00 0.00 50 1009.8
20260510031553 77 0 0.0 0.0 0.00 0.00 0.00 50 1008.0
20260510030057 77 0 0.0 0.0 0.00 0.00 0.00 49 1008.0
20260510024552 78 0 0.0 0.0 0.00 0.00 0.00 48 1008.1
20260510023052 78 0 0.0 0.0 0.00 0.00 0.00 48 1008.3
20260510021547 78 0 0.0 0.0 0.00 0.00 0.00 48 1008.3
20260510020051 78 0 0.0 0.0 0.00 0.00 0.00 46 1007.7
20260510014552 78 0 0.0 0.0 0.00 0.00 0.00 45 1006.9
20260510013048 78 0 0.0 0.0 0.00 0.00 0.00 43 1007.0
20260510011551 79 0 0.0 0.0 0.00 0.00 0.00 41 1007.0
20260510010058 80 0 0.0 0.0 0.00 0.00 0.00 43 1007.2
20260510004552 80 0 0.0 0.0 0.00 0.00 0.00 42 1007.3
20260510003056 81 0 0.0 0.0 0.00 0.00 0.00 41 1007.4
20260510001556 82 0 0.0 0.0 0.00 0.00 0.00 39 1007.0
20260510000105 83 0 0.0 0.0 0.00 0.00 0.00 37 1007.3
20260509234600 84 0 0.0 0.0 0.00 0.00 0.00 34 1007.2
20260509233056 86 0 0.0 0.0 0.00 0.00 0.00 33 1007.3
20260509231555 87 0 0.0 0.0 0.00 0.00 0.00 33 1007.4
20260509230058 86 0 0.0 0.0 0.00 0.00 0.00 33 1007.5
20260509224548 87 0 0.0 0.0 0.00 0.26 0.00 32 1007.5
20260509223059 88 0 0.0 0.0 0.00 0.26 0.00 30 1007.9
20260509221550 87 0 0.0 0.0 0.00 0.26 0.00 32 1008.1
20260509220054 87 0 0.0 0.0 0.00 0.26 0.00 32 1008.2
20260509214550 86 0 0.0 0.0 0.00 0.26 0.00 33 1008.2
20260509213056 86 0 0.0 0.0 0.00 0.26 0.00 33 1008.3
20260509211549 87 0 0.0 0.0 0.00 0.26 0.00 32 1008.5
20260509210105 87 0 0.0 0.0 0.00 0.26 0.00 33 1008.7
20260509204555 87 0 0.0 0.0 0.00 0.26 0.00 33 1008.8
20260509203050 87 0 0.0 0.0 0.00 0.26 0.00 33 1009.0
20260509201550 87 0 0.0 0.0 0.00 0.26 0.00 33 1009.0
20260509200104 87 0 0.0 0.0 0.00 0.26 0.00 36 1009.3
20260509194552 86 0 0.0 0.0 0.00 0.26 0.00 36 1009.5
20260509193049 85 0 0.0 0.0 0.00 0.26 0.00 38 1009.7
20260509191549 85 0 0.0 0.0 0.00 0.26 0.00 36 1009.9
20260509190055 85 0 0.0 0.0 0.00 0.26 0.00 37 1009.9
20260509184559 85 0 0.0 0.0 0.00 0.26 0.00 40 1010.1
20260509183049 86 0 0.0 0.0 0.00 0.26 0.00 41 1010.3
20260509181602 85 0 0.0 0.0 0.00 0.26 0.00 41 1010.4
20260509180049 85 0 0.0 0.0 0.00 0.26 0.00 43 1010.7
20260509174552 84 0 0.0 0.0 0.00 0.26 0.00 47 1010.9
20260509173057 84 0 0.0 0.0 0.00 0.26 0.00 48 1011.2
20260509171547 83 0 0.0 0.0 0.00 0.26 0.00 48 1011.4
20260509170049 82 0 0.0 0.0 0.00 0.26 0.00 43 1011.4
20260509164551 81 0 0.0 0.0 0.00 0.26 0.00 50 1011.5
20260509163052 80 0 0.0 0.0 0.00 0.26 0.00 48 1011.4
20260509161549 80 0 0.0 0.0 0.00 0.26 0.00 49 1011.8
20260509160054 78 0 0.0 0.0 0.00 0.26 0.00 48 1011.7
20260509154551 78 0 0.0 0.0 0.00 0.26 0.00 58 1011.5
20260509153054 77 0 0.0 0.0 0.00 0.26 0.00 59 1011.5
20260509151555 75 0 0.0 0.0 0.00 0.26 0.00 64 1011.6
20260509150046 73 0 0.0 0.0 0.00 0.26 0.00 69 1011.5
20260509144604 71 0 0.0 0.0 0.00 0.26 0.00 77 1011.5
20260509143113 68 0 0.0 0.0 0.00 0.26 0.00 84 1011.3
20260509141548 67 0 0.0 0.0 0.00 0.26 0.00 92 1011.4
20260509140100 65 0 0.0 0.0 0.00 0.26 0.00 94 1011.5
20260509134606 63 0 0.0 0.0 0.00 0.26 0.00 94 1011.7
20260509133053 60 0 0.0 0.0 0.00 0.26 0.00 94 1011.4
20260509131548 59 0 0.0 0.0 0.00 0.26 0.00 94 1011.2
20260509130057 57 0 0.0 0.0 0.00 0.26 0.00 93 1010.9
20260509124551 56 0 0.0 0.0 0.00 0.26 0.00 94 1010.9
20260509123106 55 0 0.0 0.0 0.00 0.26 0.00 94 1010.8
20260509121601 54 0 0.0 0.0 0.00 0.26 0.00 93 1010.5
20260509114552 54 0 0.0 0.0 0.00 0.26 0.00 92 1010.3
20260509113049 54 0 0.0 0.0 0.00 0.26 0.00 92 1010.2
20260509111602 54 0 0.0 0.0 0.00 0.26 0.00 92 1009.9
20260509110047 54 0 0.0 0.0 0.00 0.26 0.00 92 1009.8
20260509104552 55 0 0.0 0.0 0.00 0.26 0.00 92 1010.0
20260509103100 55 0 0.0 0.0 0.00 0.26 0.00 92 1010.1
20260509101617 55 0 0.0 0.0 0.00 0.26 0.00 92 1010.1
20260509100050 56 0 0.0 0.0 0.00 0.26 0.00 92 1010.3
20260509094549 56 0 0.0 0.0 0.00 0.26 0.00 92 1010.6
20260509093054 56 0 0.0 0.0 0.00 0.26 0.00 92 1010.5
20260509091551 56 0 0.0 0.0 0.00 0.26 0.00 91 1010.8
20260509090101 57 0 0.0 0.0 0.00 0.26 0.00 91 1010.6
20260509084552 57 0 0.0 0.0 0.00 0.26 0.00 91 1010.7
20260509083054 57 0 0.0 0.0 0.00 0.26 0.00 91 1010.6
20260509081605 57 0 0.0 0.0 0.00 0.26 0.00 91 1010.4
20260509080052 58 0 0.0 0.0 0.00 0.26 0.00 91 1010.5
20260509074552 58 0 0.0 0.0 0.00 0.26 0.00 91 1010.9
20260509073056 58 0 0.0 0.0 0.00 0.26 0.00 90 1011.1
20260509071559 59 0 0.0 0.0 0.00 0.26 0.00 90 1011.0
20260509070051 59 0 0.0 0.0 0.00 0.26 0.00 90 1011.1
20260509064606 60 0 0.0 0.0 0.00 0.26 0.00 90 1011.1
20260509063053 60 0 0.0 0.0 0.00 0.26 0.00 89 1010.9
20260509061553 60 0 0.0 0.0 0.00 0.26 0.00 89 1011.4
20260509060051 60 0 0.0 0.0 0.00 0.26 0.00 88 1011.2
20260509054600 61 0 0.0 0.0 0.00 0.26 0.00 88 1011.1
20260509053103 61 0 0.0 0.0 0.00 0.26 0.00 88 1011.0
20260509051554 62 0 0.0 0.0 0.00 0.26 0.00 88 1011.1
20260509050056 62 0 0.0 0.0 0.00 0.26 0.00 88 1010.9
20260509044550 62 0 0.0 0.0 0.00 0.26 0.26 88 1011.2
20260509043050 63 0 0.0 0.0 0.00 0.26 0.26 88 1011.0
20260509041615 62 0 0.0 0.0 0.00 0.26 0.26 89 1011.0
20260509040050 62 0 0.0 0.0 0.00 0.26 0.26 87 1010.8
20260509034548 62 0 0.0 0.0 0.00 0.26 0.26 86 1010.3